sat.trackr.live / text

‹ back to catalog

STARLINK-34998

NORAD 65474 · 2025-195S

PAYLOAD ACTIVE UNKNOWN

§ Identity

Operator
Country
US
Launch date
2025-09-03
Launch site
AFETR
Launch vehicle
Mass (kg)
RCS (m²)

Purposes: comms

External: N2YO · Heavens-Above · Gunter

§ Orbital elements

Epoch: 2026-05-25T00:47:48.772032Z

Period
94.10 min
Inclination
53.1590°
Eccentricity
0.0002520
Mean motion
15.30213130 rev/d
Perigee alt
473.4 km
Apogee alt
476.9 km
Semi-major
6,853.3 km
B*
6.4768e-4
RAAN
263.4700°
Arg perigee
76.8431°
Mean anomaly
283.2851°
Rev number
4,166

§ Raw data

STARLINK-349981 65474U 25195S   26145.03320338  .00018880  00000+0  64768-3 0  99962 65474  53.1590 263.4700 0002520  76.8431 283.2851 15.30213130 41666

JSON: /api/v1/satellites/65474 · /tle

For live sub-satellite position, see the globe view (requires WebGL).

§ Visibility from observer

Set your observer location to see the next 7 days of passes ≥ 10°. The values pass through the URL so the page stays shareable.

No JS? Fill the form by hand. The geolocation button needs JavaScript.